Theta_e
282 282 281 281 281 281 281 280 281 280 280 280 280 280 280 280 281 281 281 280 281 281
281 281 280 280 280 280 280 280 280 280 279 279 279 279 279 279 279 279 279 280 280 280
280 280 280 280 279 279 279 280 279 279 279 279 279 279 278 278 278 278 278 279 278 279
279 279 279 279 279 279 279 279 279 278 278 278 277 278 277 277 278 277 277 278 278 278
279 279 279 279 279 279 278 278 278 277 277 276 276 276 276 276 276 276 276 277 277 277
279 278 278 278 278 278 277 277 276 276 275 275 275 275 275 276 275 275 275 275 275 275
278 278 278 278 277 276 276 275 274 274 274 273 273 274 275 275 275 275 275 275 275 274
279 278 277 276 275 274 274 273 273 272 272 272 272 274 275 275 275 274 273 273 273 273
278 276 275 274 274 273 272 271 271 270 270 269 271 273 276 276 274 273 272 271 272 272
275 275 273 272 271 271 270 269 269 269 268 268 268 273 275 275 273 272 271 270 270 270
273 272 270 269 269 268 268 268 267 267 267 267 268 272 273 274 272 271 270 270 270 270
271 269 268 266 267 267 266 266 265 267 265 265 265 269 272 273 271 270 269 270 271 270
269 266 265 266 265 265 264 266 265 265 264 263 263 267 270 272 271 269 270 271 271 273
267 265 265 263 264 262 262 263 260 262 262 262 263 264 270 272 271 271 270 271 271 272
Wind_Speed
8 7 7 7 6 6 6 6 6 7 8 9 8 8 8 6 5 6 6 8 6 6
8 8 8 8 7 6 5 5 6 6 6 7 7 8 7 5 6 6 6 6 6 6
7 7 7 6 7 7 6 5 6 8 8 9 9 9 8 7 6 7 6 6 8 7
6 6 6 6 5 5 5 5 6 6 6 6 7 7 7 7 7 8 9 8 9 11
6 6 6 5 5 4 4 3 3 4 4 4 5 5 6 6 6 8 9 10 11 12
6 5 5 5 4 3 3 3 2 1 2 4 4 6 5 5 8 9 9 9 11 12
7 6 5 5 4 4 3 3 2 1 2 3 5 5 5 8 9 9 9 10 11 12
7 6 6 5 4 3 3 3 1 1 2 3 5 4 9 9 10 11 12 11 11 12
7 6 6 5 4 3 4 3 2 1 2 4 4 11 13 13 11 11 12 12 13 13
7 7 6 4 4 4 2 1 2 2 4 4 5 12 15 16 10 11 11 12 13 13
7 6 5 4 4 2 0 2 2 3 4 5 6 14 16 16 10 10 11 12 13 15
8 6 5 4 3 2 1 2 1 3 3 6 8 14 16 15 10 11 12 12 13 15
7 6 5 4 4 2 3 2 2 4 5 6 8 14 15 14 8 10 10 12 14 18
6 6 4 4 3 3 2 2 3 5 5 6 8 9 15 15 9 9 10 9 9 10
Wind_Direction
93 96 97 96 94 83 78 69 57 52 51 43 38 34 32 34 31 13 11 1 353 332
111 109 111 107 97 93 85 77 67 60 56 45 38 32 23 22 8 359 350 340 334 319
118 114 117 113 100 90 86 71 56 40 33 27 21 14 7 359 353 349 347 335 323 315
133 115 99 91 86 79 73 54 48 37 24 17 6 358 348 340 328 328 322 325 321 315
135 127 114 114 113 107 97 76 57 31 16 4 346 331 322 315 312 312 319 319 314 311
158 155 156 151 141 129 121 109 67 34 355 342 332 322 312 309 320 317 312 309 308 306
183 181 173 164 161 164 161 149 156 153 345 339 329 315 329 323 317 312 311 307 305 303
183 171 163 168 175 176 165 151 145 84 360 345 327 336 327 322 319 314 312 309 304 301
172 158 169 172 182 189 193 167 127 41 359 343 334 325 325 327 318 314 309 309 309 306
168 174 174 174 190 206 203 71 31 7 350 336 323 321 325 322 312 308 308 306 307 306
170 171 164 184 203 201 117 332 350 337 332 326 317 321 319 317 313 304 299 300 300 297
167 166 174 194 200 202 245 289 330 318 320 312 304 312 317 320 312 301 297 295 290 284
153 167 179 188 198 178 238 276 319 311 303 292 291 305 313 316 300 297 295 288 284 279
154 165 164 174 184 204 259 336 314 298 289 274 280 290 312 308 300 287 286 286 293 288